Location: Mantua Corners
(41.3103°N, 81.2212°W)
Time: 05:55:21
(UTC+00:00)

BlueWalker 3 - Visible Passes

Search period start: 05 October 2024 00:00
Search period end: 15 October 2024 00:00
Orbit: 473 x 486 km, 53.2° (Epoch: 04 October)

Date Brightness Start Highest point End Pass type
(mag) Time Alt. Az. Time Alt. Az. Time Alt. Az.
05 Oct 2.4 09:43:16 40° S 09:44:10 53° SE 09:47:47 10° ENE visible
06 Oct 3.0 09:16:40 41° ESE 09:16:40 41° ESE 09:19:36 10° ENE visible
06 Oct 3.0 10:50:54 10° W 10:54:09 28° NNW 10:57:24 10° NE visible
07 Oct 4.4 08:49:56 20° ENE 08:49:56 20° ENE 08:51:21 10° ENE visible
07 Oct 2.9 10:24:09 20° WNW 10:25:55 31° NNW 10:29:14 10° NE visible
08 Oct 2.7 09:57:17 33° NW 09:57:38 33° NNW 10:01:02 10° NE visible
09 Oct 3.2 09:30:18 30° N 09:30:18 30° N 09:32:47 10° NE visible
10 Oct 4.3 09:03:14 19° NNE 09:03:14 19° NNE 09:04:29 10° NE visible
10 Oct 4.0 10:37:33 10° NW 10:39:44 15° NNW 10:41:56 10° NNE visible
11 Oct 5.2 08:36:05 10° NE 08:36:05 10° NE 08:36:09 10° NE visible
11 Oct 3.9 10:10:17 14° NNW 10:11:18 15° NNW 10:13:35 10° NNE visible
12 Oct 4.0 09:43:04 16° N 09:43:04 16° N 09:45:12 10° NNE visible
13 Oct 4.5 09:15:47 14° NNE 09:15:47 14° NNE 09:16:47 10° NNE visible
13 Oct 4.3 10:51:35 10° NNW 10:53:29 13° N 10:55:24 10° NE visible
14 Oct 4.3 10:23:03 10° NNW 10:24:55 13° N 10:26:47 10° NE visible
